This demonstration page uses our WeatherBlox Daily Observations layout. Learn more.

41.55636, -103.73856

Hourly Observations for July 3, 2019

Temp ( °F °C ) Dew Point ( °F °C ) Humidity (%) Winds ( mph kmh ) Pressure ( in mb ) Visibility ( mi km ) Precip ( " mm )
12:56 am 00:56 Mostly Cloudy 73 22.7 56 13.3 55 55 S 17 28 29.83 1010 10 16.0934 0 0
1:56 am 01:56 Mostly Cloudy 70 21.3 57 14 63 63 SSE 6 9 29.85 1011 10 16.0934 0 0
2:56 am 02:56 Mostly Cloudy 71 21.5 56 13.3 60 60 E 10 17 29.84 1011 10 16.0934 0 0
3:56 am 03:56 Mostly Cloudy 69 20.3 57 13.8 66 66 SE 8 13 29.85 1011 10 16.0934 0 0
4:56 am 04:56 Clear 64 17.5 58 14.2 81 81 SE 9 15 29.85 1011 10 16.0934 0 0
5:58 am 05:58 Clear 63 17.2 58 14.2 83 83 SSE 8 13 29.84 1011 10 16.0934 0 0
7:58 am 07:58 Mostly Cloudy 59 15.2 54 12.2 82 82 SW 14 22 29.82 1010 10 16.0934 0 0
8:58 am 08:58 Partly Cloudy 59 14.9 53 11.5 80 80 S 13 20 29.78 1008 10 16.0934 0 0
9:58 am 09:58 Clear 59 15.1 52 11 77 77 SSW 10 17 29.77 1008 10 16.0934 0 0
10:58 am 10:58 Clear 58 14.7 54 12.4 86 86 ESE 9 15 29.79 1009 10 16.0934 0 0
11:58 am 11:58 Mostly Sunny 58 14.3 55 12.9 91 91 S 6 9 29.82 1010 10 16.0934 0 0
12:58 pm 12:58 Sunny 62 16.5 58 14.2 86 86 SSW 9 15 29.75 1007 10 16.0934 0 0
1:58 pm 13:58 Sunny 68 19.8 59 14.8 73 73 SSW 9 15 29.69 1005 10 16.0934 0 0
2:58 pm 14:58 Sunny 71 21.5 60 15.4 68 68 S 10 17 29.65 1004 10 16.0934 0 0
3:58 pm 15:58 Sunny 74 23.4 60 15.3 61 61 S 13 20 29.63 1003 10 16.0934 0 0
4:58 pm 16:58 Mostly Sunny 77 24.8 58 14.5 53 53 S 13 20 29.81 1010 10 16.0934 0 0
5:58 pm 17:58 Sunny 79 26.1 55 12.6 43 43 S 17 28 29.78 1009 10 16.0934 0 0
6:58 pm 18:58 Sunny 80 26.6 57 13.8 45 45 S 16 26 29.78 1008 10 16.0934 0 0
7:58 pm 19:58 Sunny 82 27.6 53 11.9 38 38 S 21 33 29.75 1008 10 16.0934 0 0
8:58 pm 20:58 Sunny 83 28.1 55 12.7 39 39 SSE 20 31 29.74 1007 10 16.0934 0 0
9:58 pm 21:58 Partly Cloudy with Nearby Thunderstorms 81 27 55 12.6 41 41 SSE 14 22 29.74 1007 10 16.0934 0 0
10:58 pm 22:58 Mostly Sunny 78 25.7 55 13 45 45 SSE 16 26 29.72 1007 10 16.0934 0 0
11:58 pm 23:58 Mostly Cloudy with Nearby Thunderstorms 71 21.6 53 11.6 53 53 N 18 30 29.78 1008 10 16.0934 0 0

Powered by AerisWeather